CW4114 Weather Reports


time (UTC)temp
C
wind
direction
speed
KPH
gust
KPH
rain 1hr
cm
rain 24hr
cm
rain mn
cm
humidity
%
barometer
mb
20260506005808 3 345 6.4 17.7 0.00 0.05 0.00 82 1006.7
20260506005532 3 340 9.7 17.7 0.00 0.08 0.00 82 1006.7
20260506005035 3 326 6.4 16.1 0.00 0.08 0.00 82 1006.6
20260506004307 3 336 6.4 14.5 0.00 0.10 0.00 82 1006.6
20260506003807 3 290 4.8 11.3 0.00 0.13 0.00 82 1006.6
20260506003302 3 30 6.4 16.1 0.00 0.13 0.00 82 1006.5
20260506002801 4 2 4.8 16.1 0.00 0.15 0.00 82 1006.5
20260506002259 4 330 6.4 14.5 0.00 0.15 0.00 81 1006.5
20260506001756 4 353 6.4 17.7 0.00 0.18 0.00 81 1006.5
20260506001259 4 341 8.0 17.7 0.00 0.18 0.00 81 1006.5
20260506000754 4 344 6.4 14.5 0.00 0.20 0.00 81 1006.4
20260506000257 4 340 6.4 9.7 0.00 0.23 0.00 81 1006.3
20260505235750 4 327 4.8 11.3 0.00 0.28 0.00 81 1006.2
20260505235250 5 348 4.8 14.5 0.00 0.33 0.00 81 1006.2
20260505234751 5 14 8.0 14.5 0.00 0.41 0.00 80 1006.2
20260505234518 5 48 6.4 11.3 0.00 0.41 0.00 80 1006.1
20260505233750 5 347 4.8 14.5 0.00 0.41 0.00 80 1006.2
20260505233249 5 300 4.8 14.5 0.00 0.41 0.00 79 1006.0
20260505232750 5 319 4.8 14.5 0.00 0.41 0.00 79 1006.0
20260505232516 5 334 4.8 11.3 0.00 0.41 0.00 79 1005.9
20260505231749 5 7 3.2 11.3 0.00 0.41 0.00 79 1006.0
20260505231249 5 358 3.2 14.5 0.00 0.43 0.00 78 1005.9
20260505230749 5 25 4.8 14.5 0.00 0.43 0.00 77 1005.9
20260505230249 6 25 6.4 14.5 0.00 0.43 0.00 74 1005.8
20260505225748 6 25 3.2 11.3 0.00 0.43 0.00 73 1005.7
20260505225248 6 17 3.2 24.1 0.00 0.43 0.00 71 1005.8
20260505224748 7 333 8.0 24.1 0.00 0.43 0.00 68 1005.6
20260505224248 7 2 6.4 17.7 0.00 0.43 0.00 66 1005.6
20260505223748 7 25 9.7 17.7 0.00 0.43 0.00 64 1005.4
20260505223248 8 329 6.4 16.1 0.00 0.43 0.00 62 1005.5
20260505222748 8 329 6.4 16.1 0.00 0.43 0.00 59 1005.5
20260505222516 10 351 6.4 24.1 0.00 0.43 0.00 53 1005.3
20260505221748 11 337 8.0 30.6 0.00 0.43 0.00 42 1005.3
20260505221247 12 282 16.1 30.6 0.00 0.43 0.00 35 1005.1
20260505220747 12 293 9.7 20.9 0.00 0.43 0.00 36 1005.1
20260505220248 12 322 12.9 30.6 0.00 0.43 0.00 36 1005.0
20260505215746 12 295 16.1 30.6 0.00 0.43 0.00 35 1005.0
20260505215247 12 290 12.9 29.0 0.00 0.43 0.00 36 1005.0
20260505215019 12 276 8.0 29.0 0.00 0.43 0.00 36 1004.9
20260505214246 11 264 12.9 29.0 0.00 0.43 0.00 36 1004.8
20260505213746 11 316 11.3 29.0 0.00 0.43 0.00 38 1004.9
20260505213247 11 314 14.5 33.8 0.00 0.43 0.00 37 1004.9
20260505212748 11 17 9.7 35.4 0.00 0.43 0.00 36 1004.9
20260505212247 11 2 11.3 35.4 0.00 0.43 0.00 35 1004.9
20260505211745 11 283 9.7 32.2 0.00 0.43 0.00 35 1004.9
20260505211245 11 309 16.1 32.2 0.00 0.43 0.00 37 1004.9
20260505211017 11 305 12.9 29.0 0.00 0.43 0.00 37 1004.9
20260505210509 11 296 17.7 32.2 0.00 0.43 0.00 36 1004.8
20260505210012 11 292 14.5 32.2 0.00 0.43 0.00 37 1004.9
20260505205245 11 254 12.9 27.4 0.00 0.43 0.00 37 1004.7
20260505204745 11 358 14.5 27.4 0.00 0.43 0.00 37 1004.7
20260505204245 11 274 8.0 33.8 0.00 0.43 0.00 37 1004.7
20260505203744 11 348 16.1 33.8 0.00 0.43 0.00 36 1004.5
20260505203516 11 323 12.9 27.4 0.00 0.43 0.00 36 1004.5
20260505202745 12 336 12.9 27.4 0.00 0.43 0.00 35 1004.4
20260505202244 12 283 12.9 35.4 0.00 0.43 0.00 38 1004.4
20260505201745 11 267 19.3 35.4 0.00 0.43 0.00 38 1004.3
20260505201512 11 340 16.1 32.2 0.00 0.43 0.00 36 1004.4
20260505200744 11 282 14.5 32.2 0.00 0.43 0.00 39 1004.3
20260505200244 11 300 12.9 25.7 0.00 0.43 0.00 38 1004.2
20260505195743 12 334 12.9 25.7 0.00 0.43 0.00 38 1004.1
20260505195243 12 350 12.9 27.4 0.00 0.43 0.00 39 1004.4
20260505194743 12 282 14.5 29.0 0.00 0.43 0.00 40 1004.3
20260505194243 12 350 16.1 29.0 0.00 0.43 0.00 37 1004.2
20260505193745 12 330 12.9 29.0 0.00 0.43 0.00 40 1004.1
20260505193240 12 286 11.3 30.6 0.00 0.43 0.00 39 1004.1
20260505192740 12 320 16.1 30.6 0.00 0.43 0.00 38 1004.1
20260505192240 12 276 14.5 30.6 0.00 0.43 0.00 42 1004.1
20260505191738 12 286 14.5 32.2 0.00 0.43 0.00 42 1004.1
20260505191510 12 323 16.1 32.2 0.00 0.43 0.00 43 1003.9
20260505190738 12 288 6.4 30.6 0.00 0.43 0.00 46 1003.8
20260505190239 11 290 12.9 30.6 0.00 0.43 0.00 47 1003.9
20260505185723 11 279 14.5 38.6 0.00 0.43 0.00 46 1003.9
20260505185223 11 275 20.9 38.6 0.00 0.43 0.00 47 1003.8
20260505184722 12 298 14.5 29.0 0.00 0.43 0.00 47 1003.8
20260505184216 11 275 9.7 24.1 0.00 0.43 0.00 52 1003.7
20260505183717 9 307 6.4 24.1 0.00 0.43 0.00 62 1003.4
20260505183217 8 0 6.4 16.1 0.00 0.43 0.00 65 1003.5
20260505182716 7 19 6.4 14.5 0.00 0.43 0.00 69 1003.4
20260505182218 7 351 3.2 14.5 0.00 0.43 0.00 67 1003.8
20260505181714 7 25 6.4 17.7 0.00 0.43 0.00 68 1003.5
20260505181214 7 358 4.8 17.7 0.00 0.43 0.00 68 1003.8
20260505180715 7 24 4.8 32.2 0.00 0.43 0.00 68 1003.7
20260505180219 7 21 11.3 32.2 0.00 0.43 0.00 69 1003.4
20260505175748 7 14 9.7 22.5 0.00 0.43 0.00 69 1003.5
20260505175020 7 341 9.7 22.5 0.00 0.43 0.00 71 1003.7
20260505174746 7 14 4.8 17.7 0.00 0.43 0.00 71 1003.4
20260505174019 7 351 8.0 16.1 0.00 0.43 0.00 72 1003.5
20260505173519 6 0 4.8 16.1 0.00 0.43 0.00 71 1003.7
20260505173016 7 340 4.8 16.1 0.00 0.43 0.00 73 1003.7
20260505172518 7 333 6.4 17.7 0.00 0.43 0.00 71 1003.7
20260505172015 7 355 6.4 17.7 0.00 0.43 0.00 74 1003.5
20260505171513 6 288 6.4 16.1 0.00 0.43 0.00 72 1003.8
20260505171012 6 42 6.4 16.1 0.00 0.43 0.00 71 1003.7
20260505170513 6 358 6.4 16.1 0.00 0.43 0.00 72 1003.7
20260505170015 6 357 8.0 17.7 0.00 0.43 0.00 73 1003.5
20260505165511 6 69 6.4 19.3 0.00 0.43 0.00 72 1003.7
20260505165009 6 334 8.0 19.3 0.00 0.43 0.00 72 1003.7
20260505164511 6 314 6.4 24.1 0.00 0.43 0.00 72 1003.8
20260505164010 6 355 6.4 24.1 0.00 0.43 0.00 71 1003.5
20260505163507 6 250 9.7 19.3 0.00 0.43 0.00 70 1003.4
20260505163009 7 329 9.7 20.9 0.00 0.43 0.00 68 1003.4
20260505162505 7 327 11.3 20.9 0.00 0.43 0.00 63 1003.5
20260505162247 8 302 6.4 24.1 0.00 0.43 0.00 60 1003.4
20260505161505 9 357 9.7 24.1 0.00 0.43 0.00 55 1003.2
20260505161006 9 347 12.9 24.1 0.00 0.43 0.00 58 1003.3
20260505160732 8 343 8.0 24.1 0.00 0.43 0.00 56 1003.5
20260505153002 8 257 9.7 27.4 0.00 0.43 0.00 58 1003.3
20260505152502 8 286 12.9 27.4 0.00 0.43 0.00 58 1003.3
20260505152004 8 290 11.3 24.1 0.00 0.43 0.00 65 1003.4
20260505151502 8 265 12.9 25.7 0.00 0.43 0.00 66 1003.4
20260505151003 8 330 8.0 25.7 0.00 0.43 0.00 67 1003.2
20260505150502 8 344 11.3 22.5 0.00 0.43 0.00 68 1003.2
20260505150223 7 285 12.9 22.5 0.00 0.43 0.00 70 1003.2
20260505140610 6 27 3.2 14.5 0.00 0.43 0.00 79 1002.2
20260505124943 6 300 9.7 19.3 0.00 0.43 0.00 70 1001.3
20260505124444 6 327 9.7 19.3 0.00 0.43 0.00 70 1001.3
20260505123943 6 302 4.8 16.1 0.00 0.43 0.00 72 1001.5
20260505123443 6 7 8.0 16.1 0.00 0.43 0.00 73 1001.3
20260505122943 6 306 4.8 16.1 0.00 0.43 0.00 73 1001.4
20260505122439 6 324 4.8 11.3 0.00 0.43 0.00 75 1001.3
20260505122215 6 296 6.4 14.5 0.00 0.43 0.00 75 1001.2
20260505121433 5 293 1.6 14.5 0.00 0.43 0.00 75 1001.2
20260505120935 5 313 8.0 14.5 0.00 0.43 0.00 76 1001.1
20260505120436 5 257 6.4 11.3 0.00 0.43 0.00 76 1001.1
20260505115936 5 275 4.8 16.1 0.00 0.43 0.00 76 1001.2
20260505115433 5 344 3.2 16.1 0.00 0.43 0.00 76 1001.1
20260505114946 5 14 4.8 14.5 0.00 0.43 0.00 76 1000.9
20260505113932 5 298 8.0 14.5 0.00 0.43 0.00 77 1000.9
20260505113432 5 327 6.4 14.5 0.00 0.43 0.00 78 1000.8
20260505112932 5 314 8.0 16.1 0.00 0.43 0.00 79 1000.8
20260505112433 5 316 6.4 16.1 0.00 0.43 0.00 80 1000.8
20260505111937 5 303 6.4 14.5 0.00 0.43 0.00 80 1000.7
20260505111432 5 286 8.0 11.3 0.00 0.43 0.00 81 1000.5
20260505111202 4 278 6.4 11.3 0.00 0.43 0.00 82 1000.4
20260505110432 4 281 6.4 9.7 0.00 0.43 0.00 82 1000.3
20260505101933 4 272 6.4 11.3 0.00 0.43 0.00 82 999.5
20260505101433 4 285 8.0 11.3 0.00 0.43 0.00 81 999.5
20260505100933 4 258 6.4 11.3 0.00 0.43 0.00 81 999.5
20260505100433 5 288 6.4 11.3 0.00 0.43 0.00 81 999.4
20260505095933 5 309 4.8 11.3 0.00 0.43 0.00 80 999.3
20260505095706 5 293 6.4 11.3 0.00 0.43 0.00 80 999.3
20260505094933 5 316 6.4 8.0 0.00 0.43 0.00 79 999.1
20260505094432 5 290 6.4 8.0 0.00 0.43 0.00 79 999.2
20260505093932 5 337 4.8 9.7 0.00 0.43 0.00 79 999.1
20260505093710 5 303 4.8 11.3 0.00 0.43 0.00 78 999.1
20260505092933 5 341 4.8 11.3 0.00 0.43 0.00 79 999.1
20260505092433 5 285 4.8 16.1 0.00 0.43 0.00 78 998.9
20260505091933 5 234 4.8 16.1 0.00 0.43 0.00 78 999.0
20260505091432 5 298 3.2 16.1 0.00 0.43 0.00 78 998.8
20260505090933 5 305 6.4 24.1 0.00 0.43 0.00 77 998.7
20260505090700 5 314 6.4 24.1 0.00 0.43 0.00 77 998.7
20260505085933 6 286 8.0 17.7 0.00 0.43 0.00 77 998.6
20260505085433 6 326 8.0 14.5 0.00 0.43 0.00 76 998.6
20260505084933 6 271 6.4 19.3 0.00 0.43 0.00 76 998.6
20260505084433 6 300 8.0 19.3 0.00 0.43 0.00 77 998.5
20260505084200 6 279 4.8 11.3 0.00 0.43 0.00 77 998.5
20260505083432 6 285 8.0 14.5 0.00 0.43 0.00 76 998.5
20260505082933 6 271 3.2 16.1 0.00 0.43 0.00 76 998.5
20260505082432 6 306 4.8 17.7 0.00 0.43 0.00 77 998.6
20260505081932 6 309 8.0 17.7 0.00 0.43 0.00 78 998.5
20260505081433 6 295 8.0 14.5 0.00 0.43 0.00 78 998.4
20260505080933 6 279 4.8 11.3 0.00 0.43 0.00 77 998.4
20260505080430 6 298 4.8 11.3 0.00 0.46 0.00 77 998.4
20260505075933 7 299 6.4 14.5 0.00 0.46 0.00 76 998.3
20260505075425 7 331 6.4 17.7 0.00 0.46 0.00 76 998.2
20260505075148 7 295 6.4 24.1 0.00 0.46 0.00 76 998.2
20260505074422 7 290 6.4 24.1 0.00 0.46 0.00 77 998.2
20260505073921 7 306 4.8 11.3 0.00 0.46 0.00 78 998.2
20260505073422 7 268 6.4 11.3 0.00 0.46 0.00 78 998.1
20260505072922 7 326 6.4 11.3 0.00 0.46 0.00 78 998.1
20260505072424 7 269 6.4 11.3 0.00 0.46 0.00 78 998.1
20260505071921 7 290 3.2 11.3 0.00 0.46 0.00 78 998.2
20260505071421 7 292 4.8 14.5 0.00 0.46 0.00 78 998.1
20260505070923 7 314 6.4 14.5 0.00 0.46 0.00 78 998.1
20260505070421 7 324 6.4 14.5 0.00 0.46 0.00 78 997.9
20260505065921 7 326 4.8 14.5 0.00 0.46 0.00 79 998.1
20260505065421 7 300 6.4 14.5 0.00 0.46 0.00 82 998.1
20260505064919 7 265 4.8 14.5 0.00 0.46 0.00 82 997.9
20260505064421 7 307 4.8 11.3 0.00 0.46 0.00 83 998.1
20260505063918 7 302 6.4 11.3 0.00 0.46 0.00 83 998.1
20260505063418 7 310 4.8 9.7 0.00 0.46 0.00 83 998.1
20260505063147 7 257 3.2 8.0 0.00 0.46 0.00 83 997.9
20260505062418 7 305 4.8 8.0 0.00 0.46 0.00 83 998.1
20260505061919 7 276 4.8 9.7 0.00 0.46 0.00 82 998.1
20260505061418 7 292 3.2 9.7 0.00 0.46 0.00 82 998.1
20260505061145 7 279 3.2 8.0 0.00 0.46 0.00 82 997.9
20260505060418 7 274 4.8 8.0 0.00 0.46 0.00 82 998.1
20260505055917 7 306 3.2 9.7 0.00 0.46 0.00 82 997.9
20260505055417 7 279 3.2 9.7 0.00 0.46 0.00 82 998.1
20260505054917 7 276 3.2 11.3 0.00 0.46 0.00 83 998.1
20260505054419 7 282 3.2 11.3 0.00 0.46 0.00 84 997.7
20260505053918 7 330 4.8 11.3 0.00 0.46 0.00 86 997.6
20260505053416 7 276 3.2 11.3 0.00 0.46 0.00 87 997.7
20260505052917 7 293 4.8 9.7 0.00 0.46 0.00 88 997.6
20260505052417 7 290 3.2 9.7 0.00 0.46 0.00 88 997.6
20260505051916 7 257 4.8 9.7 0.00 0.46 0.00 89 997.6
20260505051416 7 341 3.2 8.0 0.00 0.46 0.00 89 997.5
20260505050916 7 295 1.6 8.0 0.00 0.46 0.00 89 997.4
20260505050642 7 298 3.2 6.4 0.00 0.46 0.00 89 997.4
20260505041644 7 296 3.2 11.3 0.00 0.46 0.00 91 996.6
20260505041146 7 307 3.2 11.3 0.00 0.46 0.00 91 996.5
20260505040414 7 286 3.2 9.7 0.00 0.46 0.00 91 996.4
20260505035915 7 319 6.4 9.7 0.00 0.46 0.46 91 996.2
20260505035642 7 358 4.8 8.0 0.00 0.46 0.46 91 996.0
20260505034915 7 0 4.8 8.0 0.00 0.46 0.46 91 995.9
20260505034416 7 326 3.2 8.0 0.00 0.46 0.46 91 995.9
20260505033914 7 358 3.2 8.0 0.00 0.46 0.46 91 995.9
20260505033416 7 300 1.6 8.0 0.00 0.46 0.46 91 995.9
20260505032913 7 343 3.2 6.4 0.00 0.46 0.46 91 995.9
20260505032640 7 348 3.2 6.4 0.00 0.46 0.46 91 995.9
20260505031913 7 331 1.6 6.4 0.00 0.46 0.46 91 996.0
20260505031412 7 353 3.2 6.4 0.00 0.46 0.46 92 996.0
20260505030913 7 11 1.6 4.8 0.00 0.46 0.46 92 996.0
20260505030412 7 2 1.6 4.8 0.00 0.46 0.46 92 996.2
20260505025912 7 350 1.6 6.4 0.00 0.46 0.46 92 996.2
20260505025410 7 330 3.2 6.4 0.00 0.46 0.46 92 996.2
20260505024911 7 344 0.0 9.7 0.03 0.46 0.46 92 996.3
20260505024412 7 21 4.8 9.7 0.03 0.46 0.46 93 996.4
20260505024157 7 272 3.2 6.4 0.03 0.46 0.46 93 996.7
20260505023634 7 305 1.6 6.4 0.03 0.46 0.46 92 996.2
20260505022904 7 336 3.2 6.4 0.03 0.46 0.46 92 996.3
20260505022406 7 7 3.2 6.4 0.03 0.46 0.46 93 996.2
20260505021906 7 334 3.2 6.4 0.03 0.46 0.46 92 996.3
20260505021403 7 358 3.2 6.4 0.05 0.46 0.46 92 996.0
20260505020903 7 348 4.8 6.4 0.05 0.46 0.46 92 996.0
20260505020401 7 348 4.8 9.7 0.05 0.46 0.46 92 996.0
20260505015901 7 345 4.8 9.7 0.05 0.41 0.46 93 996.3
20260505015629 7 337 3.2 6.4 0.08 0.41 0.43 93 996.1
20260505014859 7 351 1.6 6.4 0.05 0.41 0.43 93 995.8
20260505014358 7 333 3.2 8.0 0.08 0.41 0.43 93 996.1
20260505014135 7 338 3.2 9.7 0.10 0.41 0.43 93 995.6
20260505013357 7 337 3.2 9.7 0.10 0.41 0.43 93 996.2
20260505012855 7 340 4.8 9.7 0.13 0.41 0.43 93 996.1
20260505012352 7 0 4.8 8.0 0.13 0.41 0.43 93 995.7
20260505011853 7 347 3.2 6.4 0.15 0.41 0.43 92 995.4
20260505011353 7 358 3.2 8.0 0.13 0.41 0.41 92 995.2
20260505010901 7 28 4.8 14.5 0.15 0.41 0.41 92 995.4
20260505010111 7 322 6.4 19.3 0.23 0.20 0.41 92 995.9